Time,TemperatureF,DewpointF,PressureIn,WindDirection,WindDirectionDegrees,WindSpeedMPH,WindSpeedGustMPH,Humidity,HourlyPrecipIn,Conditions,Clouds,dailyrainin,SoftwareType,DateUTC
2013-03-12 00:04:00,21.3,15.0,30.22,ESE,109,0.0,-999.0,77,-99.99,,,0.00,weatherlink.com 1.10,2013-03-12 06:04:00,
2013-03-12 00:19:00,21.6,15.0,30.23,East,80,1.0,-999.0,77,-99.99,,,0.00,weatherlink.com 1.10,2013-03-12 06:19:00,
2013-03-12 00:34:00,21.3,16.0,30.24,East,89,1.0,-999.0,81,-99.99,,,0.00,weatherlink.com 1.10,2013-03-12 06:34:00,
2013-03-12 00:49:00,21.1,16.0,30.24,SE,139,0.0,-999.0,80,-99.99,,,0.00,weatherlink.com 1.10,2013-03-12 06:49:00,
2013-03-12 01:04:00,21.1,16.0,30.24,ENE,75,1.0,-999.0,79,-99.99,,,0.00,weatherlink.com 1.10,2013-03-12 07:04:00,
2013-03-12 01:19:00,21.4,15.0,30.24,SSE,149,0.0,-999.0,76,-99.99,,,0.00,weatherlink.com 1.10,2013-03-12 07:19:00,
2013-03-12 01:34:00,21.4,14.0,30.24,East,84,2.0,-999.0,72,-99.99,,,0.00,weatherlink.com 1.10,2013-03-12 07:34:00,
2013-03-12 01:49:00,21.5,14.0,30.24,NNE,12,0.0,-999.0,73,-99.99,,,0.00,weatherlink.com 1.10,2013-03-12 07:49:00,
2013-03-12 02:04:00,21.1,14.0,30.26,ESE,107,0.0,-999.0,74,-99.99,,,0.00,weatherlink.com 1.10,2013-03-12 08:04:00,
2013-03-12 02:19:00,20.7,14.0,30.25,ESE,116,0.0,-999.0,76,-99.99,,,0.00,weatherlink.com 1.10,2013-03-12 08:19:00,
2013-03-12 02:34:00,20.5,14.0,30.25,ENE,69,1.0,-999.0,75,-99.99,,,0.00,weatherlink.com 1.10,2013-03-12 08:34:00,
2013-03-12 02:49:00,20.5,13.0,30.25,ESE,107,2.0,-999.0,73,-99.99,,,0.00,weatherlink.com 1.10,2013-03-12 08:49:00,
2013-03-12 03:04:00,20.8,13.0,30.25,ENE,74,5.0,-999.0,71,-99.99,,,0.00,weatherlink.com 1.10,2013-03-12 09:04:00,
2013-03-12 03:19:00,20.9,12.0,30.25,ENE,65,5.0,-999.0,69,-99.99,,,0.00,weatherlink.com 1.10,2013-03-12 09:19:00,
2013-03-12 03:34:00,20.9,11.0,30.24,East,91,5.0,-999.0,67,-99.99,,,0.00,weatherlink.com 1.10,2013-03-12 09:34:00,
2013-03-12 03:49:00,21.0,12.0,30.24,SSW,213,1.0,-999.0,67,-99.99,,,0.00,weatherlink.com 1.10,2013-03-12 09:49:00,
2013-03-12 04:04:00,20.8,11.0,30.22,ESE,118,2.0,-999.0,66,-99.99,,,0.00,weatherlink.com 1.10,2013-03-12 10:04:00,
2013-03-12 04:19:00,20.8,12.0,30.23,ESE,109,4.0,-999.0,68,-99.99,,,0.00,weatherlink.com 1.10,2013-03-12 10:19:00,
2013-03-12 04:34:00,20.5,12.0,30.23,South,186,6.0,-999.0,69,-99.99,,,0.00,weatherlink.com 1.10,2013-03-12 10:34:00,
2013-03-12 04:49:00,20.6,12.0,30.23,SE,126,3.0,-999.0,70,-99.99,,,0.00,weatherlink.com 1.10,2013-03-12 10:49:00,
2013-03-12 05:04:00,20.5,12.0,30.23,ESE,107,5.0,-999.0,71,-99.99,,,0.00,weatherlink.com 1.10,2013-03-12 11:04:00,
2013-03-12 05:19:00,20.8,11.0,30.22,SSE,158,2.0,-999.0,66,-99.99,,,0.00,weatherlink.com 1.10,2013-03-12 11:19:00,
2013-03-12 05:34:00,21.1,11.0,30.22,SW,217,6.0,-999.0,66,-99.99,,,0.00,weatherlink.com 1.10,2013-03-12 11:34:00,
2013-03-12 05:49:00,21.2,12.0,30.23,SE,124,4.0,-999.0,67,-99.99,,,0.00,weatherlink.com 1.10,2013-03-12 11:49:00,
2013-03-12 06:04:00,21.2,12.0,30.23,WNW,289,4.0,-999.0,67,-99.99,,,0.00,weatherlink.com 1.10,2013-03-12 12:04:00,
2013-03-12 06:19:00,21.0,12.0,30.24,ESE,120,5.0,-999.0,67,-99.99,,,0.00,weatherlink.com 1.10,2013-03-12 12:19:00,
2013-03-12 06:34:00,20.9,12.0,30.24,SE,138,5.0,-999.0,68,-99.99,,,0.00,weatherlink.com 1.10,2013-03-12 12:34:00,
2013-03-12 06:49:00,20.8,12.0,30.24,ESE,114,1.0,-999.0,69,-99.99,,,0.00,weatherlink.com 1.10,2013-03-12 12:49:00,
2013-03-12 07:04:00,20.8,12.0,30.24,SE,141,2.0,-999.0,69,-99.99,,,0.00,weatherlink.com 1.10,2013-03-12 13:04:00,
2013-03-12 07:19:00,21.0,12.0,30.24,SE,140,0.0,-999.0,68,-99.99,,,0.00,weatherlink.com 1.10,2013-03-12 13:19:00,
2013-03-12 07:34:00,21.3,12.0,30.23,SE,132,0.0,-999.0,67,-99.99,,,0.00,weatherlink.com 1.10,2013-03-12 13:34:00,
2013-03-12 07:49:00,21.3,12.0,30.24,NE,49,1.0,-999.0,67,-99.99,,,0.00,weatherlink.com 1.10,2013-03-12 13:49:00,
2013-03-12 08:04:00,21.4,13.0,30.25,ESE,111,2.0,-999.0,69,-99.99,,,0.00,weatherlink.com 1.10,2013-03-12 14:04:00,
2013-03-12 08:19:00,22.0,13.0,30.26,ESE,119,4.0,-999.0,68,-99.99,,,0.00,weatherlink.com 1.10,2013-03-12 14:19:00,
2013-03-12 08:34:00,22.7,13.0,30.27,East,95,4.0,-999.0,65,-99.99,,,0.00,weatherlink.com 1.10,2013-03-12 14:34:00,
2013-03-12 08:49:00,23.5,13.0,30.27,East,81,6.0,-999.0,63,-99.99,,,0.00,weatherlink.com 1.10,2013-03-12 14:49:00,
2013-03-12 09:19:00,25.0,12.0,30.28,SSW,211,4.0,-999.0,58,-99.99,,,0.00,weatherlink.com 1.10,2013-03-12 15:19:00,
2013-03-12 09:34:00,25.9,12.0,30.29,West,279,4.0,-999.0,55,-99.99,,,0.00,weatherlink.com 1.10,2013-03-12 15:34:00,
2013-03-12 09:49:00,27.0,13.0,30.30,SSW,202,1.0,-999.0,55,-99.99,,,0.00,weatherlink.com 1.10,2013-03-12 15:49:00,
2013-03-12 10:04:00,27.6,14.0,30.29,ENE,64,2.0,-999.0,56,-99.99,,,0.00,weatherlink.com 1.10,2013-03-12 16:04:00,
2013-03-12 10:19:00,27.9,14.0,30.30,SSE,153,4.0,-999.0,57,-99.99,,,0.00,weatherlink.com 1.10,2013-03-12 16:19:00,
2013-03-12 10:34:00,28.0,15.0,30.30,South,169,2.0,-999.0,59,-99.99,,,0.00,weatherlink.com 1.10,2013-03-12 16:34:00,
2013-03-12 10:49:00,28.5,14.0,30.32,NW,313,5.0,-999.0,56,-99.99,,,0.00,weatherlink.com 1.10,2013-03-12 16:49:00,
2013-03-12 11:04:00,29.2,16.0,30.32,SSW,213,7.0,-999.0,57,-99.99,,,0.00,weatherlink.com 1.10,2013-03-12 17:04:00,
2013-03-12 11:19:00,29.8,16.0,30.30,SE,130,8.0,-999.0,56,-99.99,,,0.00,weatherlink.com 1.10,2013-03-12 17:19:00,
2013-03-12 11:34:00,30.4,16.0,30.31,SE,127,4.0,-999.0,55,-99.99,,,0.00,weatherlink.com 1.10,2013-03-12 17:34:00,
2013-03-12 11:49:00,31.3,16.0,30.31,WSW,257,2.0,-999.0,53,-99.99,,,0.00,weatherlink.com 1.10,2013-03-12 17:49:00,
2013-03-12 12:04:00,31.5,16.0,30.31,NNW,347,5.0,-999.0,53,-99.99,,,0.00,weatherlink.com 1.10,2013-03-12 18:04:00,
2013-03-12 12:19:00,32.5,16.0,30.30,SW,214,7.0,-999.0,52,-99.99,,,0.00,weatherlink.com 1.10,2013-03-12 18:19:00,
2013-03-12 12:49:00,33.2,16.0,30.31,ESE,121,2.0,-999.0,50,-99.99,,,0.00,weatherlink.com 1.10,2013-03-12 18:49:00,
2013-03-12 13:04:00,33.6,16.0,30.31,NE,53,6.0,-999.0,48,-99.99,,,0.00,weatherlink.com 1.10,2013-03-12 19:04:00,
2013-03-12 13:19:00,34.4,15.0,30.31,SSE,151,4.0,-999.0,46,-99.99,,,0.00,weatherlink.com 1.10,2013-03-12 19:19:00,
2013-03-12 13:34:00,35.4,16.0,30.32,West,260,4.0,-999.0,46,-99.99,,,0.00,weatherlink.com 1.10,2013-03-12 19:34:00,
2013-03-12 13:49:00,35.4,16.0,30.32,East,86,2.0,-999.0,45,-99.99,,,0.00,weatherlink.com 1.10,2013-03-12 19:49:00,
2013-03-12 14:04:00,34.7,15.0,30.33,South,190,5.0,-999.0,44,-99.99,,,0.00,weatherlink.com 1.10,2013-03-12 20:04:00,
2013-03-12 14:19:00,34.4,15.0,30.33,SW,219,3.0,-999.0,46,-99.99,,,0.00,weatherlink.com 1.10,2013-03-12 20:19:00,
2013-03-12 14:34:00,34.8,16.0,30.34,South,178,4.0,-999.0,46,-99.99,,,0.00,weatherlink.com 1.10,2013-03-12 20:34:00,
2013-03-12 15:04:00,35.5,16.0,30.33,SSW,211,1.0,-999.0,45,-99.99,,,0.00,weatherlink.com 1.10,2013-03-12 21:04:00,
2013-03-12 15:19:00,35.4,16.0,30.32,East,96,2.0,-999.0,46,-99.99,,,0.00,weatherlink.com 1.10,2013-03-12 21:19:00,
2013-03-12 15:34:00,35.0,16.0,30.32,SW,227,3.0,-999.0,47,-99.99,,,0.00,weatherlink.com 1.10,2013-03-12 21:34:00,
2013-03-12 15:49:00,34.7,16.0,30.31,South,179,1.0,-999.0,46,-99.99,,,0.00,weatherlink.com 1.10,2013-03-12 21:49:00,
2013-03-12 16:04:00,34.7,16.0,30.32,NNE,17,0.0,-999.0,46,-99.99,,,0.00,weatherlink.com 1.10,2013-03-12 22:04:00,
2013-03-12 16:19:00,34.4,15.0,30.31,ENE,63,2.0,-999.0,46,-99.99,,,0.00,weatherlink.com 1.10,2013-03-12 22:19:00,
2013-03-12 16:34:00,34.4,15.0,30.32,SE,140,8.0,-999.0,46,-99.99,,,0.00,weatherlink.com 1.10,2013-03-12 22:34:00,
2013-03-12 16:49:00,33.4,15.0,30.32,South,173,2.0,-999.0,47,-99.99,,,0.00,weatherlink.com 1.10,2013-03-12 22:49:00,
2013-03-12 17:04:00,32.1,15.0,30.33,NW,315,2.0,-999.0,50,-99.99,,,0.00,weatherlink.com 1.10,2013-03-12 23:04:00,
2013-03-12 17:19:00,31.2,14.0,30.34,WSW,246,1.0,-999.0,50,-99.99,,,0.00,weatherlink.com 1.10,2013-03-12 23:19:00,
2013-03-12 17:34:00,31.2,15.0,30.33,NE,53,4.0,-999.0,52,-99.99,,,0.00,weatherlink.com 1.10,2013-03-12 23:34:00,
2013-03-12 17:49:00,31.0,14.0,30.33,SW,227,1.0,-999.0,50,-99.99,,,0.00,weatherlink.com 1.10,2013-03-12 23:49:00,
2013-03-12 18:04:00,31.0,15.0,30.33,North,355,1.0,-999.0,51,-99.99,,,0.00,weatherlink.com 1.10,2013-03-13 00:04:00,
2013-03-12 18:19:00,30.4,15.0,30.34,SW,231,2.0,-999.0,53,-99.99,,,0.00,weatherlink.com 1.10,2013-03-13 00:19:00,
2013-03-12 18:34:00,29.7,15.0,30.34,East,91,1.0,-999.0,54,-99.99,,,0.00,weatherlink.com 1.10,2013-03-13 00:34:00,
2013-03-12 18:49:00,29.0,15.0,30.35,ESE,109,5.0,-999.0,56,-99.99,,,0.00,weatherlink.com 1.10,2013-03-13 00:49:00,
2013-03-12 19:04:00,28.4,15.0,30.35,NNE,32,1.0,-999.0,57,-99.99,,,0.00,weatherlink.com 1.10,2013-03-13 01:04:00,
2013-03-12 19:19:00,27.9,14.0,30.37,WNW,288,1.0,-999.0,57,-99.99,,,0.00,weatherlink.com 1.10,2013-03-13 01:19:00,
2013-03-12 19:34:00,27.8,14.0,30.38,SSW,212,1.0,-999.0,57,-99.99,,,0.00,weatherlink.com 1.10,2013-03-13 01:34:00,
2013-03-12 19:49:00,27.5,14.0,30.37,ENE,74,2.0,-999.0,58,-99.99,,,0.00,weatherlink.com 1.10,2013-03-13 01:49:00,
2013-03-12 20:04:00,27.3,15.0,30.37,East,94,1.0,-999.0,59,-99.99,,,0.00,weatherlink.com 1.10,2013-03-13 02:04:00,
2013-03-12 20:19:00,27.1,14.0,30.38,West,271,5.0,-999.0,59,-99.99,,,0.00,weatherlink.com 1.10,2013-03-13 02:19:00,
2013-03-12 20:34:00,26.8,14.0,30.38,West,277,6.0,-999.0,59,-99.99,,,0.00,weatherlink.com 1.10,2013-03-13 02:34:00,
2013-03-12 20:49:00,26.7,14.0,30.38,WSW,257,0.0,-999.0,58,-99.99,,,0.00,weatherlink.com 1.10,2013-03-13 02:49:00,
2013-03-12 21:04:00,26.4,14.0,30.37,West,265,2.0,-999.0,59,-99.99,,,0.00,weatherlink.com 1.10,2013-03-13 03:04:00,
2013-03-12 21:19:00,26.4,14.0,30.37,East,92,0.0,-999.0,59,-99.99,,,0.00,weatherlink.com 1.10,2013-03-13 03:19:00,
2013-03-12 21:34:00,26.2,14.0,30.38,West,281,0.0,-999.0,59,-99.99,,,0.00,weatherlink.com 1.10,2013-03-13 03:34:00,
2013-03-12 21:49:00,25.8,13.0,30.39,NE,46,0.0,-999.0,59,-99.99,,,0.00,weatherlink.com 1.10,2013-03-13 03:49:00,
2013-03-12 22:04:00,25.4,13.0,30.40,ENE,59,0.0,-999.0,60,-99.99,,,0.00,weatherlink.com 1.10,2013-03-13 04:04:00,
2013-03-12 22:19:00,25.1,13.0,30.40,NE,36,0.0,-999.0,61,-99.99,,,0.00,weatherlink.com 1.10,2013-03-13 04:19:00,
2013-03-12 22:34:00,24.7,13.0,30.39,NE,36,1.0,-999.0,61,-99.99,,,0.00,weatherlink.com 1.10,2013-03-13 04:34:00,
2013-03-12 22:49:00,24.0,13.0,30.40,NE,36,0.0,-999.0,63,-99.99,,,0.00,weatherlink.com 1.10,2013-03-13 04:49:00,
2013-03-12 23:04:00,23.7,13.0,30.41,NE,36,0.0,-999.0,63,-99.99,,,0.00,weatherlink.com 1.10,2013-03-13 05:04:00,
2013-03-12 23:19:00,23.3,13.0,30.41,NE,36,0.0,-999.0,64,-99.99,,,0.00,weatherlink.com 1.10,2013-03-13 05:19:00,
2013-03-12 23:34:00,23.0,12.0,30.41,NE,36,0.0,-999.0,64,-99.99,,,0.00,weatherlink.com 1.10,2013-03-13 05:34:00,
2013-03-12 23:49:00,23.0,14.0,30.40,WNW,303,0.0,-999.0,69,-99.99,,,0.00,weatherlink.com 1.10,2013-03-13 05:49:00,